ECMWFNIL_850_rhum_075.txt.gz
RH
63 61 65 71 74 74 74 74 74 74 73 72 72 71 68 66 66 66 66 67 67 65 62 57 54 53 50 47 45 43 43 44 45 45 49 51 50 47 45 46 50 52
45 43 56 68 73 76 79 79 79 77 74 74 74 72 69 67 67 67 67 67 68 69 67 62 58 56 53 49 47 46 45 46 46 46 49 52 53 51 47 48 52 55
36 50 66 74 76 77 78 77 76 76 77 76 73 69 66 65 66 67 68 69 69 69 69 67 63 61 58 54 52 51 50 49 48 47 49 52 55 55 52 52 54 57
54 67 70 70 69 66 68 70 71 72 72 71 70 68 67 67 67 68 69 70 69 68 68 67 65 65 65 62 59 58 56 53 52 50 51 53 56 58 58 58 58 60
66 66 64 67 68 70 74 72 66 65 66 70 75 78 80 78 75 73 71 70 67 66 67 67 67 70 70 67 65 63 60 56 54 52 54 56 58 60 62 63 63 64
66 67 74 77 73 69 59 45 47 63 74 82 90 94 96 93 87 80 74 70 69 69 69 71 74 75 74 72 69 64 61 58 55 54 56 59 61 63 65 67 68 68
76 84 81 66 46 29 21 31 60 86 94 96 99 100 100 99 96 88 79 76 77 78 80 82 81 78 77 78 73 66 62 60 57 57 59 62 65 67 68 70 72 73
81 76 55 32 19 17 37 72 96 100 99 100 101 100 99 99 99 96 93 94 95 94 94 90 83 81 83 82 76 70 66 62 62 62 63 66 68 70 72 74 75 76
46 32 20 21 34 53 79 98 96 86 84 87 89 93 96 97 99 100 99 100 101 100 98 93 89 89 88 86 80 76 71 65 65 67 68 70 72 73 75 77 78 79
16 21 34 53 71 84 92 91 85 76 70 68 68 68 69 73 77 82 88 96 100 102 101 99 97 95 93 91 85 80 76 71 68 70 73 74 75 76 78 79 82 81
29 48 67 83 92 92 85 77 72 62 52 49 47 42 40 39 41 46 55 69 80 88 97 101 99 98 97 95 90 86 82 77 71 71 77 79 78 79 81 82 84 83
53 75 92 99 96 82 65 54 47 40 37 36 34 35 34 31 32 33 37 47 56 67 84 97 101 101 101 98 96 93 88 82 77 74 79 83 83 83 84 85 86 86
80 98 104 96 78 56 42 38 38 37 39 39 38 39 38 37 40 41 43 51 59 64 71 82 90 96 100 101 100 98 92 87 83 80 81 86 87 87 88 90 89 88
98 96 83 67 52 41 39 42 43 43 44 44 44 45 45 48 52 54 55 57 63 69 72 79 88 94 98 101 101 101 98 93 90 87 87 89 92 92 92 93 93 92
83 65 52 46 45 44 46 48 48 49 50 48 50 52 55 59 62 66 68 64 65 70 79 91 98 98 99 101 101 101 100 97 94 91 90 93 97 98 97 97 97 97
61 49 48 49 49 49 51 54 54 55 55 55 58 62 65 67 70 74 78 80 80 78 86 98 101 99 100 100 100 102 102 101 100 95 94 97 100 101 101 101 100 101
57 53 52 50 51 52 55 58 59 60 63 65 67 70 71 76 85 90 91 95 98 94 96 101 100 100 102 99 101 100 92 91 97 100 99 99 101 102 102 102 102 102
59 57 56 55 56 58 59 63 66 69 72 75 74 77 83 90 99 102 99 100 102 101 101 100 99 102 101 100 102 95 80 79 91 100 102 101 101 102 101 101 101 101
62 60 60 59 59 61 63 68 75 78 81 84 85 87 93 97 99 100 101 101 101 101 101 100 100 101 100 101 102 92 83 85 89 95 101 102 101 101 101 101 100 100
65 64 63 61 61 64 67 70 79 84 84 87 89 92 96 98 99 100 100 100 100 100 102 101 100 101 100 101 98 90 86 86 87 92 101 102 101 101 101 100 100 100
71 69 67 66 65 67 70 72 80 86 86 88 91 94 100 101 101 101 99 99 100 100 101 101 100 100 100 100 98 91 86 87 90 96 101 101 101 101 101 100 99 99
77 76 73 72 71 74 77 78 83 88 89 92 94 96 101 102 101 100 100 101 100 98 100 101 99 99 100 102 98 88 84 90 96 99 101 101 101 100 101 101 99 98
78 80 80 79 79 83 85 84 87 91 92 96 100 101 101 101 100 100 100 101 101 99 99 100 99 100 101 100 96 88 88 97 102 101 101 101 100 100 101 101 99 98
76 79 84 86 87 87 88 89 90 92 96 101 104 102 100 100 100 100 100 100 101 101 100 99 100 100 99 100 99 95 95 101 102 101 101 100 100 100 100 100 99 99
73 76 82 89 90 84 85 92 96 96 99 102 102 101 101 101 100 100 101 99 97 99 102 101 98 94 92 99 102 99 98 101 100 100 101 100 100 101 99 99 100 101
74 80 86 90 91 86 85 93 99 100 101 101 101 101 100 100 100 101 101 98 94 98 102 97 90 88 91 98 102 100 100 101 100 100 101 99 101 102 97 94 97 101

ECMWFNIL_850_rhum_078.txt.gz
RH
23 26 39 59 71 72 72 72 69 66 62 59 58 58 62 71 81 88 92 92 89 85 83 83 77 69 67 69 69 68 66 64 64 64 63 62 62 61 58 55 53 53
25 34 53 72 79 75 66 54 46 38 31 34 48 64 79 90 96 99 99 99 99 97 95 90 83 73 69 69 69 68 68 67 67 67 65 64 67 66 61 58 55 55
33 48 69 79 70 51 34 21 16 20 33 57 81 94 98 99 98 97 98 99 98 98 98 95 88 77 68 66 67 69 70 70 69 69 67 68 70 67 63 60 55 55
20 28 39 37 26 16 12 14 25 48 75 94 100 99 98 93 85 81 83 87 90 94 98 98 95 86 74 66 63 65 69 72 73 72 70 72 74 69 64 61 57 56
9 10 10 10 11 13 22 36 53 76 94 98 94 89 84 70 55 47 48 54 63 77 89 95 97 97 91 82 73 70 74 78 79 78 76 76 76 71 66 63 59 57
8 10 11 13 18 28 52 73 80 83 83 77 68 58 48 37 28 24 23 25 29 40 56 70 83 92 98 99 93 87 87 87 88 87 83 80 79 75 70 66 62 59
10 13 14 22 40 64 85 88 78 66 53 42 34 27 24 22 21 21 21 21 19 19 25 33 46 60 75 89 98 100 98 94 94 93 87 83 83 80 74 68 65 61
14 15 25 50 73 81 75 60 47 38 30 25 22 21 22 22 22 23 22 23 22 20 20 20 22 28 39 55 74 92 101 100 96 89 84 85 87 84 78 70 66 63
16 28 59 84 82 63 45 35 30 26 25 26 25 24 26 27 28 27 26 26 26 25 25 24 24 25 26 32 43 64 84 95 97 93 88 91 93 88 81 74 69 67
24 57 91 91 72 55 41 32 31 29 30 32 32 32 33 33 34 34 34 33 31 30 29 29 30 30 30 32 36 51 68 79 91 99 98 97 97 92 86 80 74 71
44 83 97 84 74 63 45 36 37 37 37 39 41 41 40 40 40 39 40 38 36 36 34 34 35 37 38 38 38 48 62 72 85 99 102 101 100 96 91 86 79 77
70 96 95 87 79 61 45 43 43 41 43 45 46 46 44 44 44 42 43 43 42 42 40 40 42 43 47 48 46 49 55 65 82 97 100 100 102 100 96 92 86 83
94 102 94 83 67 51 46 46 44 45 49 48 48 49 47 46 46 44 45 45 45 45 45 47 50 50 56 63 64 62 61 63 75 91 97 98 101 102 100 98 93 88
104 91 78 66 53 48 47 46 47 49 51 50 50 51 49 48 48 46 46 47 49 53 54 57 61 62 67 73 75 77 79 79 82 92 99 97 99 101 100 101 99 95
89 69 61 54 49 50 48 49 52 52 52 52 52 52 51 50 50 51 52 52 54 60 64 67 71 70 72 81 89 93 95 96 96 98 98 96 98 101 99 99 101 99
69 56 56 53 52 53 52 55 55 53 55 54 52 54 54 54 55 56 60 63 64 65 67 72 77 78 82 92 100 101 99 100 101 99 97 95 96 99 99 98 99 99
59 54 57 56 56 57 57 58 57 57 58 56 55 57 57 59 61 63 65 70 73 73 74 80 84 86 93 101 102 100 100 100 100 100 99 98 96 98 101 101 100 100
58 59 60 60 59 60 59 59 60 60 60 60 60 60 61 63 64 67 70 72 77 82 82 85 88 90 95 101 101 100 101 100 99 100 99 98 95 96 99 100 101 101
61 62 62 61 61 62 61 61 62 62 62 64 64 63 64 65 68 72 74 76 82 86 85 87 89 90 94 99 101 101 101 99 100 101 100 99 97 95 96 99 100 100
61 63 64 62 62 63 62 63 65 66 66 67 67 67 68 71 75 78 77 80 87 89 89 91 91 90 93 96 97 96 92 92 99 102 100 99 99 99 99 100 100 100
64 65 65 64 64 65 65 67 69 71 71 71 71 73 78 84 87 87 85 85 88 90 92 93 91 90 93 95 92 86 80 85 97 103 101 99 97 98 101 101 100 101
68 69 67 68 69 70 71 73 74 75 75 76 78 80 86 92 92 93 94 91 89 90 94 96 92 90 92 90 84 77 77 87 99 100 99 99 95 93 97 99 98 99
72 74 74 75 76 77 79 78 78 78 77 81 88 89 90 92 92 93 96 96 94 92 93 97 95 91 88 82 75 76 84 94 101 99 99 99 96 95 97 98 98 100
76 80 83 84 82 82 84 84 82 80 79 83 91 95 95 93 94 96 95 95 95 92 91 97 98 92 87 80 75 81 91 99 101 100 100 100 99 99 98 96 99 101
80 83 86 88 87 83 84 89 88 83 80 83 89 95 99 96 95 97 97 95 93 90 89 91 91 86 80 77 80 88 96 101 101 100 99 100 99 99 97 97 100 101
81 83 84 87 90 86 83 87 90 87 85 86 89 94 99 98 96 98 99 97 94 92 89 85 83 81 75 74 85 95 97 98 101 101 100 100 99 99 99 99 100 100

ECMWFNIL_850_rhum_081.txt.gz
RH
24 16 8 6 6 7 7 8 15 26 36 48 62 79 88 88 88 88 84 80 75 70 62 54 47 40 40 55 78 92 92 86 81 77 75 71 66 65 65 67 68 69
21 11 7 8 9 8 9 19 35 46 51 59 73 82 81 70 62 57 51 45 38 33 28 23 20 17 16 22 38 65 89 95 88 81 78 75 71 68 66 65 67 69
11 8 9 10 10 9 19 36 48 52 52 56 58 53 43 34 28 23 21 18 15 14 12 12 11 10 11 11 13 26 52 78 91 93 91 84 77 73 70 67 67 70
9 11 11 10 11 18 33 45 47 47 44 36 28 22 18 18 17 15 15 15 14 14 13 13 12 11 11 12 13 12 17 35 59 79 91 94 90 83 77 73 71 72
12 14 12 12 21 35 48 52 50 49 38 24 18 18 18 17 17 17 17 17 17 15 15 14 14 15 14 13 14 14 13 15 24 44 66 83 94 97 90 83 81 80
15 15 13 22 38 52 60 63 64 58 42 28 22 20 20 19 19 20 18 18 19 18 18 18 17 17 17 17 15 15 17 16 17 28 40 51 70 91 100 97 94 91
17 16 19 32 48 61 72 74 70 58 42 30 24 22 24 23 22 22 22 22 22 22 22 21 21 22 21 22 21 18 18 19 18 23 27 27 37 60 83 98 102 98
19 19 26 39 52 66 76 71 58 44 33 27 25 26 26 25 26 26 26 26 25 25 27 25 25 26 26 27 27 25 22 21 20 22 25 24 24 31 46 75 99 101
22 24 36 51 61 65 61 48 37 31 28 27 26 26 26 28 30 29 30 31 31 31 31 31 31 30 31 32 32 31 29 26 25 25 27 27 28 28 28 51 87 102
23 32 51 62 60 54 43 35 33 30 29 29 28 29 31 32 34 36 37 37 37 37 36 36 36 34 34 34 33 35 34 32 31 30 31 30 30 33 32 40 70 96
26 44 65 61 47 43 38 35 35 32 32 33 33 34 36 37 40 42 43 43 42 42 42 41 41 40 39 39 38 39 39 39 39 37 37 38 36 38 40 41 53 76
30 47 63 54 40 41 39 35 36 35 36 38 39 41 42 42 46 46 48 49 46 47 47 46 46 47 46 45 45 46 47 48 49 49 48 48 48 47 49 51 51 57
33 42 53 48 42 42 38 37 39 39 41 43 45 49 49 49 51 51 52 52 50 51 52 51 51 51 51 52 52 52 53 53 54 58 59 58 58 58 59 63 64 61
39 46 49 46 44 42 41 43 43 44 48 50 52 54 54 55 56 55 56 55 54 54 52 53 55 54 55 56 55 55 58 63 70 77 81 82 82 82 82 83 85 84
49 53 52 49 49 48 48 49 49 51 54 54 57 58 58 59 58 58 58 56 56 55 54 55 56 56 59 60 64 74 81 88 94 96 98 99 98 99 99 98 98 97
55 55 54 54 53 52 53 54 54 56 57 57 60 60 60 60 59 59 59 58 57 55 55 57 57 59 62 63 78 96 100 99 101 100 100 100 100 101 99 99 100 98
56 56 56 56 56 56 56 56 57 58 59 60 61 60 61 61 60 59 59 58 58 56 56 59 62 66 65 69 89 103 99 99 102 100 101 101 100 101 100 98 97 94
58 60 62 60 60 61 60 60 60 60 61 62 62 62 62 61 61 61 60 58 59 59 61 63 65 68 68 74 87 89 84 93 103 100 101 102 100 101 100 99 98 96
62 65 66 65 65 65 63 63 63 63 65 65 65 65 64 63 63 62 60 60 63 66 68 67 65 66 68 70 74 77 83 94 100 100 101 103 103 103 101 98 97 97
67 70 70 68 68 66 65 65 65 67 68 68 68 67 66 65 64 62 61 63 68 72 71 66 64 67 69 66 67 77 87 91 92 95 99 99 99 100 99 97 98 99
71 73 71 69 68 68 67 67 69 70 70 70 70 68 67 67 65 66 68 68 71 74 71 67 67 71 74 74 75 79 83 85 87 90 92 92 91 93 94 95 95 93
73 74 72 71 71 71 71 70 72 72 72 72 71 68 67 68 68 71 75 74 71 70 72 74 73 73 78 85 90 87 81 81 83 81 82 85 87 92 93 91 87 86
75 78 77 76 75 74 74 73 74 74 73 73 73 71 68 68 72 75 76 75 72 70 76 82 77 72 77 90 99 97 91 89 87 83 83 85 88 91 91 89 90 92
78 82 81 79 76 76 76 76 75 74 73 73 74 76 73 71 76 79 74 71 71 73 80 85 81 73 76 90 100 100 100 101 99 95 94 92 91 91 90 94 98 97
79 83 83 80 78 77 77 78 76 74 74 73 73 77 78 75 78 81 76 69 70 75 79 83 83 78 79 92 100 99 101 103 100 100 100 98 95 93 92 93 96 96
77 82 83 81 80 78 77 77 77 76 74 72 71 75 79 78 78 81 79 73 72 76 77 78 82 84 86 95 100 100 100 100 100 102 102 100 96 91 90 88 89 93

ECMWFNIL_850_rhum_084.txt.gz
RH
19 13 11 11 12 11 12 18 25 30 32 38 42 40 36 29 20 14 11 10 10 10 10 9 10 10 9 10 9 9 9 9 8 8 9 9 8 12 25 49 78 91
15 13 13 13 13 13 17 25 33 41 51 58 60 56 46 31 18 13 13 13 11 11 11 11 11 11 11 11 10 11 10 9 10 9 9 9 10 10 10 20 47 75
13 14 14 14 15 15 21 32 42 54 64 68 65 55 40 26 19 17 17 16 15 14 14 14 14 13 13 13 12 12 12 11 10 10 10 10 10 12 11 11 24 46
16 17 16 17 18 20 27 35 42 49 54 53 48 39 29 23 21 20 19 19 18 17 17 16 16 16 15 16 16 15 14 14 13 13 13 11 11 13 13 15 21 32
19 21 20 20 23 26 33 41 44 46 44 38 32 28 25 23 22 22 21 21 20 19 19 19 19 19 19 19 19 19 18 17 17 18 17 14 13 13 13 17 20 22
21 23 23 25 30 34 41 49 49 44 37 31 28 26 26 25 24 24 23 22 22 21 21 21 21 22 22 23 22 22 23 23 23 24 24 21 18 17 16 18 21 20
23 25 25 29 35 38 41 44 42 36 32 30 29 28 28 27 26 25 25 24 25 25 25 25 25 25 26 28 28 28 29 29 29 30 29 27 25 24 23 23 24 23
26 27 27 31 38 40 37 36 35 34 33 32 30 29 29 29 28 28 28 28 27 27 28 28 28 29 31 33 34 34 34 33 33 34 33 31 29 28 27 29 29 26
28 30 30 33 40 42 37 35 35 34 33 33 32 32 31 31 31 31 31 32 32 31 32 33 34 35 37 39 39 39 38 38 38 38 37 36 35 33 32 33 35 32
30 32 33 35 40 41 39 37 36 35 35 35 35 35 35 35 35 36 37 37 37 37 37 38 40 41 42 43 43 43 42 41 41 41 41 40 39 38 38 38 40 38
33 34 36 38 40 41 40 39 38 37 38 39 39 39 39 40 41 42 44 45 44 45 46 46 47 48 48 48 48 48 47 45 44 43 42 42 41 40 40 42 45 44
36 37 39 42 42 42 42 42 43 43 43 44 44 44 44 44 46 48 50 51 50 51 52 51 52 52 53 52 52 51 50 49 48 47 46 46 45 44 45 47 50 51
39 40 44 46 45 46 46 46 48 49 49 49 49 49 49 49 50 52 52 53 54 54 54 54 54 54 54 53 52 52 52 51 50 50 49 50 50 53 59 65 69 69
42 44 47 48 48 49 50 51 53 53 54 54 53 53 53 54 55 56 55 56 56 56 55 55 54 53 53 53 52 51 50 51 52 57 63 67 70 77 84 89 91 90
44 46 48 49 49 50 53 55 56 56 57 57 57 57 57 58 58 58 58 58 57 56 55 54 54 53 53 53 53 54 60 69 73 81 89 92 93 96 98 99 99 99
47 50 51 51 52 54 58 60 60 61 61 60 60 60 60 60 60 59 61 60 58 56 55 54 54 53 53 54 54 60 79 95 98 97 99 100 100 101 100 101 101 101
51 53 53 53 54 58 60 63 65 66 65 64 63 63 62 62 62 62 62 61 59 58 56 56 57 55 55 55 51 59 84 101 102 101 101 101 102 103 102 102 101 99
53 53 54 54 55 57 59 62 65 66 67 66 65 64 65 64 64 64 63 61 61 61 59 59 58 56 56 55 54 67 89 101 101 101 102 101 102 103 102 102 101 97
56 56 57 57 57 58 59 61 65 67 68 68 67 66 66 66 66 65 63 63 63 63 63 61 58 57 57 57 64 80 91 95 98 101 100 101 101 101 101 102 101 97
59 60 60 60 60 61 60 62 67 70 70 70 70 69 68 67 66 65 64 64 65 66 66 61 58 60 62 62 68 77 82 88 98 101 100 101 100 100 102 102 99 93
60 63 64 64 65 65 64 66 71 73 73 73 72 71 70 69 67 67 66 64 66 68 67 63 62 64 64 61 61 64 73 89 100 102 101 101 100 98 99 100 97 91
63 66 68 69 69 69 68 69 73 75 75 75 74 72 71 70 69 69 69 68 67 68 70 70 67 64 60 55 55 61 75 93 101 101 101 101 98 95 92 92 91 89
65 69 72 73 73 72 71 72 76 77 76 77 77 74 71 70 70 70 71 72 70 68 73 75 67 59 56 53 52 59 75 94 102 101 100 102 100 96 92 88 84 84
67 71 74 76 75 74 74 76 79 79 78 78 78 77 74 72 74 74 72 73 73 71 74 76 68 58 56 58 56 60 78 96 102 101 101 101 101 99 94 88 81 75
68 71 74 76 76 75 75 78 80 80 80 78 78 78 77 75 77 79 76 74 74 72 71 73 70 61 57 62 64 70 87 101 101 101 102 101 100 100 98 93 84 72
70 71 73 75 76 75 75 77 80 82 81 78 76 76 77 77 77 81 82 77 72 71 68 66 67 66 63 65 70 80 94 102 101 101 101 100 100 101 100 97 87 75